INTELSAT 701 (IS-701) (22871 NORAD) Tracking and Keplerian Element Data

This shows tracking and keplerian element data for the satellite.

Feedback or suggestion? Click here.




ElementValue
Catalog22871
NameINTELSAT 701 (IS-701)
Epoch Orbit9040
Epoch Day201.48709567
Epoch Year2018
RAAN65.1733
Inclination4.9516
Eccentricity0.0001374
Argument of Perigee8.2963
Mean Anonmoly342.335
Mean Motion0.99321729
Decay Rate-2.34E-06
L11 22871U 93066A 18201.48709567 -.00000234 00000-0 00000-0 0 9992
L22 22871 4.9516 65.1733 0001374 8.2963 342.3350 0.99321729 90400

Live tracking and technical data element details for INTELSAT 701 (IS-701) (NORAD 22871). INTELSAT 701 (IS-701) can be tracked NOW for your location showing map with azimuth and elevation plus other details from your city location.

Track the satellite on the map from your city or location and see movement details for azimuth, elevation, latitude, longitude, range, height, and movement on the map or in text.







IsCatalogInMostPopularTable: catalog: 22871, numindb: 39
Update: records affected: 1



GetName: 22871 INTELSAT 701 (IS-701)

Hit Count: updated at: Sat, 21 Jul 2018 07:52:39 GMT